Lid_Strength_Index
1 1 1 1 1 1 1 1 1 0 -0 0 0 -0 0 0 -0 -0 0 0 1 1 0 1 1 0 1 1 0 1 2 2 4 2 1 -0 -0 -0 -1 -2 -2 -2 -1
1 2 3 3 3 3 3 3 3 3 2 2 2 2 2 2 2 2 2 2 2 3 3 2 1 1 1 1 1 1 2 1 3 4 2 1 1 -0 -0 -0 -0 -1 -0
4 4 4 4 4 4 3 3 2 2 2 2 2 2 2 2 3 2 2 3 3 3 2 2 2 2 3 2 3 4 2 2 2 3 3 1 1 0 0 -0 -0 -1 -1
4 4 3 3 3 3 2 2 2 2 2 2 2 2 2 2 2 2 2 2 2 2 2 2 2 2 3 2 4 3 2 3 3 3 3 3 3 2 2 2 2 0 0
4 4 4 4 3 4 4 3 3 3 4 4 4 4 4 3 4 4 3 3 3 3 3 3 2 3 4 3 3 2 2 2 2 3 3 3 3 2 2 1 2 1 0
5 5 5 4 5 5 4 5 4 5 5 5 5 5 5 5 8 7 6 4 4 4 4 3 3 4 3 4 5 5 4 4 3 3 3 3 2 2 2 2 2 3 3
5 5 5 5 5 5 5 5 6 5 5 5 5 5 5 5 8 8 7 4 4 4 4 3 3 3 3 3 4 5 5 5 5 4 4 4 4 4 3 4 4 4 4
5 6 6 6 6 6 5 5 5 5 5 6 6 5 5 5 8 9 8 4 4 4 4 4 3 3 3 5 5 4 4 4 4 4 4 4 4 4 3 4 4 4 4
7 7 7 7 6 6 6 6 6 6 6 7 7 6 6 6 8 9 7 4 4 4 4 4 4 4 7 9 7 7 6 6 5 6 6 7 8 8 7 5 6 6 7
8 8 8 7 8 8 7 7 7 8 8 8 8 7 7 6 8 9 7 5 6 6 5 5 6 7 9 9 7 7 8 6 6 5 5 5 6 5 7 5 5 6 6
8 8 8 8 9 8 8 8 9 9 9 8 7 6 6 6 6 9 9 7 8 8 8 7 6 9 9 9 10 7 7 7 7 7 7 6 5 5 5 4 4 5 6
9 9 9 9 9 9 9 9 9 9 9 9 8 8 8 8 9 10 11 11 11 9 8 7 6 9 10 10 9 9 10 9 6 7 7 7 7 6 5 3 4 4 3
10 10 10 10 9 9 10 10 11 11 11 11 11 11 11 10 9 10 11 12 11 10 8 8 9 10 9 8 9 9 9 7 8 8 8 7 6 5 3 3 3 2 2
11 10 10 10 10 10 11 11 11 11 11 12 12 12 12 11 10 9 10 10 10 10 9 8 8 8 8 8 8 7 7 7 7 8 8 7 7 7 7 6 6 5 5
11 11 10 10 10 12 12 12 12 11 12 12 13 13 13 12 12 12 12 11 11 11 10 7 8 7 7 7 7 6 6 6 6 6 7 7 7 7 7 6 6 6 6
11 11 11 11 12 12 12 12 12 12 12 13 13 13 13 12 12 12 12 12 12 12 9 9 9 8 8 8 8 8 7 7 7 8 7 7 7 6 6 6 5 5 5
11 11 10 11 12 13 13 13 13 12 12 13 13 13 13 13 12 12 12 12 12 11 11 11 10 9 9 8 9 9 9 9 8 9 8 8 7 7 6 5 5 5 5
11 11 11 12 12 12 12 12 12 13 13 13 12 12 13 12 12 13 12 11 12 11 12 12 11 10 9 9 9 10 10 9 10 10 9 9 9 8 7 5 4 4 5
10 11 12 12 12 13 12 13 13 13 13 13 13 12 12 13 12 12 12 12 13 13 13 12 11 10 10 10 10 10 11 11 11 11 11 11 10 9 8 6 4 8 7
12 13 13 12 13 13 12 13 13 13 13 13 14 14 13 12 13 13 13 12 13 13 12 13 12 11 11 11 11 11 12 12 12 12 12 12 11 10 9 7 6 4 4
12 13 14 13 13 13 13 14 13 13 14 14 14 14 15 13 13 13 13 13 13 13 13 12 13 12 12 12 12 12 13 13 13 13 13 13 12 11 10 7 6 3 2
13 13 13 13 13 14 14 14 13 14 14 14 14 14 15 14 14 14 14 14 13 13 12 12 13 13 12 13 13 13 14 14 14 14 14 13 13 12 10 8 6 5 2
13 13 13 13 14 15 14 13 13 13 13 14 14 14 14 14 15 14 14 14 14 13 13 12 13 13 12 12 13 14 15 15 15 14 14 13 13 12 11 9 8 7 3
14 14 13 14 14 14 13 13 13 14 14 14 14 14 14 14 14 14 14 14 13 13 13 13 13 13 12 12 13 13 13 14 14 14 14 13 13 12 10 9 9 7 3
14 14 14 14 15 13 13 13 13 13 14 14 14 14 14 13 13 13 14 13 13 13 13 13 13 13 12 13 13 13 14 14 14 15 14 12 12 11 11 11 10 7 3
13 14 14 15 14 14 14 14 14 14 14 14 14 14 14 14 14 14 14 14 13 13 12 12 12 12 12 12 13 14 14 14 14 14 13 12 11 11 12 12 10 8 5